Location: Ithaca
(42.4410°N, 76.4970°W)
Time: 19:17:03
(UTC-05:00)

ISS - Visible Passes

Search period start: 24 February 2017 00:00
Search period end: 06 March 2017 00:00
Orbit: 399 x 408 km, 51.6° (Epoch: 25 February)

Date Brightness Start Highest point End Pass type
(mag) Time Alt. Az. Time Alt. Az. Time Alt. Az.
27 Feb -0.3 06:15:21 10° SSE 06:17:18 15° SE 06:19:16 10° E visible
01 Mar -1.6 06:05:23 10° SSW 06:08:23 33° SE 06:11:24 10° ENE visible
02 Mar -0.7 05:13:39 10° S 05:15:59 18° SE 05:18:19 10° E visible
03 Mar -3.2 05:56:16 10° SW 05:59:33 80° SE 06:02:51 10° ENE visible
04 Mar -2.2 05:05:34 25° SSW 05:07:00 41° SE 05:10:08 10° ENE visible
05 Mar -0.8 04:15:24 20° ESE 04:15:24 20° ESE 04:17:10 10° E visible
05 Mar -2.9 05:48:03 13° WSW 05:50:48 48° NNW 05:54:01 10° NE visible
